FENGYUN 1C DEB, 30245

Orbit data source: Space-Track

FENGYUN 1C DEB, 30245 is space debris in SSO originally from a launch on Mon, 10 May 1999 UTC launched from the Taiyaun Space Center, China (TSC). Fengyun 1C debris stems from the Chinese weather satellite Fengyun-1C, which was intentionally destroyed by a Chinese anti-satellite missile in 2007. This event dramatically increased the amount of space debris, with thousands of trackable fragments posing hazards to satellites and human spaceflight. The Fengyun 1C debris cloud has become a focal point in discussions about space sustainability and the need for international regulations to prevent the creation of new debris.

Loading next visibility...
Identifier
30245, 1999-025XE
Orbit
SSO
Country
Flag of CNCN / PRC
Related business
Manufacturer
Unknown
Mission
Spacecraft
Bus & Motor
Unknown
Mass
Unknown
Launch date (UTC)
1999-05-10 (27 years ago)
Launch vehicle
Unknown
Launch site
Taiyaun Space Center, China (TSC)
Object type
Payload
Rocket body
Debris
Shape & HBR
Unknown shape, 0.1 m
Radar Cross Section
Medium (>0.1 m² and <1 m²)

Expand to show TLE details & history
Last TLE update: 1 day ago

TLE from 1 day ago
0 FENGYUN 1C DEB
1 30245U 99025XE  26253.17119905  .00000661  00000-0  59397-3 0  9999
2 30245  98.9101 229.6695 0190382 243.8681 114.2777 13.79691342984362
Epoch: 2026-09-10T04:06Z
TLE epoch observation values (Epoch: 2026-09-10T04:06:31.597Z)
Latitude
-0.00007°
Longitude
178.82512°
Altitude
1,027.511 km
Speed
7.308 km/s
True Right ascension
15h 18m 40s
True Declination
0° 00' 00"
Sunlit
Object was in daylight at epoch
Visualization orbit readout
Latitude
Unknown
Longitude
Unknown
Altitude
Unknown
Speed
Unknown
Apparent Right ascension
Unknown
Apparent Declination
Unknown
Sunlit
N/A
Visualization observer readout
Local Sidereal Time
07:33:43
Azimuth
Unknown
Elevation
Unknown
Doppler factor
Unknown
Orbital elements
Apogee altitude
1,101.949 km
Perigee altitude
822.456 km
Semi-major axis
7,340.339 km
Eccentricity
0.01904
Inclination
98.9101°
RAAN
229.6695°
Arg. of periapsis
243.8681°
True anomaly
116.24672°
Mean anomaly
114.2777°
Eccentric anomaly
115.26417°
Mean motion
3.45119 °/min
Orbital period
104.31 mins
BSTAR
0.00059397
Loading maneuver chart data...
Computing Atmospheric mass density...

Documentation

Showing up to 5 results
|